Theta_e
320 319 318 316 315 315 316 316 317 315 316 317 315 315 317 319 325 328 331 332 332 329 328 327 325 325 326 328 326 321 320 318 312 309 310 310 311 312 313 312 312 312 311 313 314 315 315 313 311 311 314 316 317 318 317 319 319 320 330 331 323 323 324 319 318 315 318 320 312 309 314 316 315 313 313 314 313 314 314 315 317 317 317 317 317 318 317 317
320 319 317 316 315 315 315 315 315 314 315 316 315 316 317 320 324 328 330 330 329 325 325 325 324 325 327 329 326 321 318 315 310 309 311 310 310 312 313 312 311 311 311 314 315 315 314 311 311 313 316 316 316 317 317 318 317 321 328 327 327 330 320 314 314 311 313 315 311 310 313 314 315 313 313 315 314 313 314 315 316 316 317 317 317 318 317 316
320 319 317 316 315 315 315 313 313 314 316 316 315 317 318 321 324 327 328 326 324 322 323 324 324 326 328 327 321 315 312 310 309 310 311 311 311 312 313 313 311 311 312 314 315 314 313 311 311 314 316 316 316 317 316 317 316 317 323 327 331 325 314 311 312 312 313 312 311 311 312 313 314 313 314 314 313 312 314 315 314 316 316 317 317 317 318 316
319 318 317 315 315 315 313 312 313 315 316 315 316 318 318 321 323 325 325 323 322 322 323 324 325 327 326 321 314 310 309 309 310 310 311 311 311 313 313 312 311 311 313 314 313 312 311 311 313 314 316 315 314 316 315 316 316 315 321 329 323 313 313 313 312 313 312 312 312 311 311 312 312 313 313 313 315 314 314 315 315 315 314 316 316 317 318 316
319 318 316 315 315 314 313 313 315 315 316 316 317 318 318 320 322 323 322 321 322 323 324 325 325 325 320 314 310 309 309 310 311 311 311 312 313 313 312 311 310 311 314 314 312 311 311 312 313 314 315 314 314 316 315 314 316 316 315 317 313 310 315 314 311 313 312 313 313 311 312 313 313 313 313 313 316 317 315 315 315 315 315 315 315 316 317 317
319 317 316 315 315 314 313 315 316 315 316 316 317 317 318 318 320 321 321 322 323 325 325 325 324 320 314 310 310 310 310 311 312 312 311 312 314 313 311 310 310 312 314 314 311 310 311 312 313 314 313 313 313 315 315 313 314 319 314 309 310 310 312 312 311 313 312 312 312 311 313 313 312 313 313 313 315 316 315 315 315 315 315 315 315 316 316 317
319 317 316 315 314 313 314 316 316 315 316 317 317 317 317 317 318 320 321 323 324 326 325 325 322 315 310 309 310 309 309 311 312 313 312 312 313 311 311 310 310 313 314 314 311 310 312 312 313 314 313 312 312 312 313 313 312 319 317 310 310 311 311 312 312 312 311 313 313 312 313 312 313 313 312 312 315 315 315 315 314 315 315 314 315 315 315 316
318 316 315 315 314 312 314 316 314 314 316 316 316 317 318 318 319 320 323 324 325 327 327 326 319 311 309 310 310 309 309 310 311 313 313 311 311 311 310 310 311 314 315 313 311 310 312 313 313 313 313 312 313 311 311 313 312 317 317 310 310 310 310 311 311 312 311 312 312 312 312 311 312 312 311 313 315 314 314 315 314 314 315 315 315 315 315 315
317 316 315 315 314 312 313 314 313 314 316 316 317 318 318 319 319 321 323 324 326 327 327 323 315 309 310 310 309 309 309 312 312 312 313 311 310 311 310 310 313 314 313 312 310 310 312 313 313 314 312 311 312 311 311 313 314 313 313 310 310 310 310 310 311 311 311 311 311 312 311 311 311 312 312 314 314 314 314 314 314 314 314 315 315 315 315 315
316 315 315 314 314 312 312 313 313 315 316 316 317 318 319 319 320 322 323 325 327 327 324 316 310 309 309 309 309 308 310 312 311 311 313 312 311 310 310 312 314 312 311 310 310 311 312 313 313 313 312 311 311 310 310 313 314 312 310 310 310 310 310 311 311 310 311 311 311 313 312 310 311 311 314 314 313 314 314 314 314 314 314 314 315 315 314 314
316 315 314 313 313 311 311 311 313 315 315 316 317 319 320 320 321 323 325 326 325 322 315 310 309 309 309 309 308 308 311 312 311 310 311 312 311 310 311 313 314 311 310 310 310 311 312 313 312 312 313 312 311 310 310 311 312 311 312 312 310 310 311 311 311 311 312 312 311 312 312 310 311 312 315 314 314 314 314 314 314 314 314 313 315 315 315 315
316 315 313 313 312 311 310 309 312 314 315 316 317 318 319 320 321 322 323 321 317 312 309 309 309 308 308 309 308 309 312 312 311 310 311 312 310 311 314 314 312 310 311 310 310 311 312 313 312 313 313 311 311 311 312 311 311 311 312 315 312 311 313 310 310 311 311 313 311 311 312 313 314 314 315 314 313 314 314 314 314 314 314 313 315 315 314 314
316 314 313 312 312 310 310 309 311 314 315 315 315 315 316 317 316 316 315 312 310 309 309 309 308 307 308 308 308 309 311 312 313 310 311 312 310 313 314 313 311 311 311 311 311 311 312 313 312 313 312 311 312 311 312 310 310 312 310 314 315 313 314 310 309 311 311 312 311 311 314 319 318 312 313 314 313 314 314 314 314 314 314 314 315 315 315 314
315 313 312 312 312 310 309 308 311 313 313 311 311 311 311 311 310 310 309 308 309 309 308 308 306 307 307 308 309 309 310 312 314 312 312 312 312 313 313 311 311 311 311 312 312 312 312 313 312 312 312 312 311 311 314 312 312 314 309 314 317 314 316 311 308 311 313 312 311 311 313 319 319 311 310 313 313 313 314 314 314 314 314 314 315 315 315 315
316 314 312 313 312 310 309 309 310 312 311 310 309 308 308 308 308 308 308 308 308 308 308 307 305 306 307 308 309 309 309 311 314 314 313 313 313 313 312 311 311 311 312 312 312 313 313 313 312 313 311 312 311 312 317 317 318 318 312 316 316 313 316 313 307 308 313 313 310 311 314 316 315 310 309 312 312 312 313 314 314 314 314 314 314 315 315 315
316 315 313 313 312 310 310 309 310 310 312 311 308 308 308 308 308 308 308 308 308 308 307 306 305 306 307 307 309 310 309 309 312 315 314 314 313 312 311 311 311 311 311 312 313 313 314 313 312 312 311 312 313 316 318 318 321 320 317 321 317 313 315 314 310 306 309 312 310 310 313 317 316 311 311 312 312 312 312 313 313 313 314 314 314 314 314 315
316 315 314 313 312 310 310 309 309 310 312 312 308 308 308 307 308 308 308 307 307 307 306 306 306 306 307 308 310 310 310 309 310 314 314 313 312 312 311 311 311 311 312 312 313 312 313 313 311 312 312 311 312 317 316 315 317 317 319 321 317 315 314 314 314 308 307 311 313 312 312 317 316 310 311 312 311 311 311 312 313 313 313 313 313 314 314 314
316 315 313 312 312 311 310 309 308 309 311 310 307 308 307 307 307 307 307 306 306 306 307 307 306 308 308 308 310 311 310 309 310 313 314 312 312 311 311 311 311 311 313 313 312 313 313 311 311 315 315 311 312 315 315 316 316 315 318 318 315 314 312 314 316 310 309 312 314 314 313 315 315 310 311 311 310 311 312 312 313 314 314 314 314 313 314 315
316 315 313 312 312 311 310 309 308 308 308 308 308 308 307 307 306 306 306 305 307 307 309 308 306 310 311 308 310 311 310 310 310 313 313 312 312 311 312 311 311 312 312 313 313 312 312 312 312 316 315 313 313 314 318 322 320 318 318 319 319 318 315 315 316 309 307 313 314 315 315 315 316 314 312 311 311 311 312 313 314 314 314 314 315 314 314 314
316 315 313 312 311 310 310 309 307 307 308 308 308 307 307 307 308 310 308 307 308 308 309 309 307 310 310 308 310 312 311 311 311 312 312 312 312 312 312 312 313 313 312 315 315 310 312 315 315 316 315 315 315 313 316 318 316 316 317 320 321 319 316 314 314 308 305 313 316 315 318 316 316 316 311 310 311 309 310 312 314 315 315 315 315 315 315 315
316 315 313 312 311 310 309 308 308 307 308 308 307 307 308 308 309 311 310 309 309 308 308 308 308 310 309 308 311 312 311 311 312 312 312 312 312 312 312 312 313 313 311 312 313 311 313 316 316 317 313 312 313 313 314 314 314 316 316 317 316 316 317 312 312 311 305 311 317 315 317 316 316 316 311 309 309 309 311 312 314 315 315 315 315 315 316 316
316 315 313 312 310 310 309 309 308 307 308 308 307 308 307 308 310 309 309 309 309 309 309 307 308 310 309 309 312 312 311 312 312 312 312 312 312 312 312 313 314 313 311 310 312 313 313 316 317 313 306 307 312 314 316 317 318 320 316 316 316 316 317 312 311 312 308 311 318 317 317 317 317 316 311 308 308 311 313 313 314 315 315 315 315 315 315 315
316 315 314 312 311 310 310 309 308 307 308 308 307 308 307 309 310 308 308 309 309 309 309 308 309 310 310 310 312 312 311 312 313 313 312 312 313 312 312 312 314 314 312 312 314 315 315 317 313 305 303 309 314 313 316 317 318 320 316 316 317 314 316 315 312 312 309 310 315 317 316 316 316 316 313 308 306 309 311 312 313 313 314 315 315 315 315 315
316 315 314 313 312 311 310 310 309 307 307 307 307 308 308 309 310 309 308 308 309 309 309 308 309 311 310 311 312 312 311 311 312 313 312 312 312 312 312 311 313 313 312 313 313 314 316 311 305 303 307 313 314 312 316 318 315 315 318 323 323 317 317 316 313 312 311 308 310 313 314 321 324 322 319 311 304 306 309 310 312 312 312 313 314 314 314 314
316 315 314 313 312 312 311 310 309 308 307 307 308 307 308 310 309 308 308 309 309 309 309 309 309 311 311 311 312 311 311 311 312 313 312 313 312 312 311 310 312 313 313 313 312 314 313 305 303 307 310 313 313 313 317 319 316 314 318 325 324 320 319 317 313 315 317 313 309 309 313 327 331 327 325 317 312 314 310 307 310 313 312 312 313 313 313 314
316 315 315 314 313 312 311 310 309 308 307 307 307 307 308 310 309 308 310 312 310 308 309 310 309 310 311 312 312 311 311 311 312 313 312 312 312 312 311 310 310 312 312 311 311 313 310 304 306 312 312 314 314 313 315 317 318 314 314 318 319 320 322 320 317 317 320 315 308 308 315 322 325 325 324 318 318 321 313 308 309 311 312 312 312 313 313 314
316 315 315 314 313 312 310 310 309 308 307 307 307 307 309 310 308 308 310 311 312 309 309 309 308 310 311 312 312 311 313 313 312 313 313 313 312 311 312 311 310 310 308 309 312 311 308 307 309 312 313 315 314 314 313 315 318 315 313 314 318 322 323 322 320 320 319 313 311 315 317 315 317 319 319 314 316 320 319 316 310 308 312 313 313 314 314 314
317 316 315 314 314 312 310 309 309 308 307 307 307 308 309 309 307 309 311 309 310 309 308 308 308 310 311 312 311 311 312 313 313 314 313 312 312 311 312 311 312 313 307 308 314 310 309 313 312 311 314 314 314 315 312 315 319 316 309 311 315 318 322 324 324 323 317 311 315 320 314 312 319 322 319 313 314 318 321 320 314 309 312 314 313 315 314 313
317 316 315 314 314 313 310 309 309 307 307 307 307 308 309 309 307 309 312 308 307 308 308 308 309 311 311 311 311 310 310 311 312 313 312 312 312 310 312 309 309 313 308 309 317 312 309 312 310 311 314 313 313 312 311 318 320 311 305 310 313 315 319 321 322 322 317 314 321 319 310 311 318 325 323 314 313 318 319 317 312 309 312 313 314 315 314 313
316 316 315 314 314 314 311 310 309 307 308 307 308 309 308 308 308 308 307 308 309 308 306 307 309 311 311 311 310 310 311 311 311 312 310 311 311 309 311 309 309 315 315 315 318 313 308 309 308 309 311 310 309 308 308 313 312 307 310 315 315 319 321 320 322 319 314 319 323 315 310 311 312 322 326 315 314 318 316 315 312 309 312 314 314 315 313 313
316 316 315 314 314 314 312 310 308 308 307 307 309 309 308 309 311 309 306 309 312 308 305 308 309 311 311 311 312 311 312 311 309 311 312 310 310 309 310 311 311 316 319 317 317 313 310 310 310 309 307 306 308 309 307 305 305 310 320 320 315 321 322 321 324 317 314 324 320 310 309 310 310 319 323 316 316 316 312 314 314 311 312 313 314 315 314 314
316 316 315 314 314 314 312 310 308 308 307 308 309 308 308 310 310 310 307 308 311 309 308 309 308 311 312 311 313 313 313 313 309 311 314 312 311 311 311 314 316 315 314 316 317 315 314 314 310 308 307 308 313 315 310 310 312 316 320 319 319 320 317 320 326 318 316 321 313 307 309 310 310 316 315 315 318 315 308 309 311 309 310 313 314 315 315 315
317 316 316 315 315 314 312 310 309 308 308 310 309 308 312 312 309 309 308 307 309 308 310 311 310 311 312 311 312 313 314 313 311 311 312 312 311 310 311 314 317 318 316 317 318 315 316 316 312 311 311 309 312 316 314 315 316 314 315 318 322 320 314 316 318 313 314 317 309 306 309 312 313 313 313 314 312 310 306 306 308 308 309 313 314 314 315 315
317 316 316 315 315 314 312 310 308 308 309 310 308 308 313 312 309 311 309 307 309 309 310 312 312 311 312 312 312 312 313 312 311 311 312 312 312 311 312 311 313 320 320 316 317 316 316 317 314 313 312 310 312 313 315 316 314 313 315 317 319 323 322 319 319 319 319 317 310 306 310 319 318 311 312 312 307 307 307 307 308 308 310 313 313 314 315 315
316 316 316 315 314 314 312 310 307 308 310 310 307 308 311 310 309 310 308 308 312 312 311 311 311 311 312 313 312 310 313 313 311 312 312 312 312 312 313 310 311 319 319 314 314 314 314 315 313 309 307 310 312 310 311 315 314 313 312 313 315 321 324 317 313 316 315 312 311 310 313 320 316 309 309 307 304 306 306 307 309 309 311 313 313 315 315 315
315 314 315 314 314 314 312 309 307 310 311 308 307 309 310 309 312 312 308 309 312 311 310 311 313 313 312 313 313 310 312 314 312 312 312 312 312 312 312 310 311 314 315 315 317 314 312 313 312 309 308 309 311 308 307 311 315 313 311 314 315 314 318 314 307 306 308 310 313 313 314 316 312 311 314 311 310 309 307 307 308 309 311 311 312 314 314 315
313 312 313 313 313 314 312 308 308 311 310 307 307 310 310 308 311 312 309 309 311 310 311 312 311 313 312 312 313 312 312 313 311 312 313 312 312 312 312 311 310 310 312 314 316 316 315 314 312 313 313 308 306 306 305 305 310 315 315 314 311 308 314 316 312 312 312 313 317 314 312 315 313 314 319 317 314 313 313 311 307 307 310 310 312 314 313 314
312 312 312 312 313 313 311 308 309 312 310 307 308 312 313 309 307 309 309 307 309 311 312 313 311 311 312 312 313 312 312 313 312 312 313 312 313 313 312 311 310 309 309 310 311 315 319 317 310 310 314 310 307 310 311 307 306 312 314 311 311 314 316 313 312 317 315 311 319 319 311 309 310 315 321 317 313 316 315 313 310 309 310 311 312 312 312 313
311 311 311 311 311 311 310 308 310 312 309 308 309 311 314 313 308 307 307 306 310 312 311 313 313 311 311 312 313 311 312 313 312 312 313 312 313 311 310 311 312 308 306 308 312 313 317 321 313 309 311 311 311 313 315 313 308 307 308 306 312 322 320 314 312 316 315 310 316 321 316 314 313 315 320 316 314 317 315 315 315 309 308 311 312 312 313 314
310 310 310 310 310 310 310 309 311 312 310 309 310 309 311 314 311 307 307 308 311 312 312 315 313 311 312 312 311 311 312 313 311 312 313 311 311 310 308 310 312 309 305 307 312 313 314 317 316 312 310 312 316 316 315 316 311 309 310 309 313 315 313 313 312 312 316 316 317 317 318 325 322 313 315 315 316 317 313 314 314 307 308 312 312 313 315 315
309 311 311 309 310 311 310 311 311 310 310 310 311 310 309 312 312 309 308 310 311 310 312 315 313 313 315 313 312 312 312 313 311 311 313 311 310 311 309 309 310 310 308 308 313 316 314 313 316 315 313 315 316 312 310 313 312 310 311 312 313 313 313 316 313 310 312 314 316 314 313 324 325 314 314 317 314 309 304 306 308 308 310 312 313 315 315 315
310 311 311 310 311 311 310 312 310 307 309 309 309 309 309 310 313 311 309 310 312 311 311 313 315 316 315 311 311 312 312 313 312 312 314 312 311 312 309 308 308 308 310 311 312 313 312 316 319 316 315 315 312 306 303 307 311 310 311 312 313 313 315 318 317 313 309 306 309 312 311 320 324 311 309 310 305 302 303 304 306 309 311 313 314 315 314 314
310 311 311 310 311 311 311 312 310 308 309 308 307 308 308 309 312 311 310 311 312 313 313 314 314 312 312 312 312 312 311 312 311 311 313 312 311 310 308 307 308 308 309 312 312 309 310 318 319 315 315 315 312 308 304 306 311 311 313 314 313 313 315 320 321 318 314 309 310 312 311 320 325 307 299 301 300 302 306 306 307 310 312 313 314 314 313 313
311 311 311 310 311 311 310 311 310 310 310 308 309 310 307 307 309 311 314 315 313 314 318 317 311 309 313 314 312 312 312 312 312 311 313 313 309 307 307 307 309 310 309 311 313 310 311 317 317 315 317 316 314 313 312 312 313 314 316 313 312 314 313 313 314 314 315 314 315 316 314 318 323 311 303 303 304 306 307 308 308 311 312 312 313 313 312 312
310 311 311 310 311 311 310 310 310 310 309 310 312 312 309 309 307 308 314 314 309 313 317 314 310 311 316 314 310 312 312 312 314 312 311 313 309 306 306 307 309 310 309 310 311 310 314 317 316 315 315 315 315 316 315 316 314 314 316 313 311 314 312 312 314 313 314 315 314 317 316 312 314 315 312 310 311 311 309 309 309 310 312 312 312 313 312 312
307 310 310 310 311 311 309 308 308 308 309 311 311 311 312 313 308 307 311 312 308 310 313 312 311 313 315 313 310 311 311 311 314 312 311 312 311 308 306 306 307 308 309 309 308 312 318 317 313 313 314 313 314 314 316 318 316 315 316 313 311 311 311 316 319 315 314 313 311 313 314 310 312 315 314 314 317 317 312 308 310 311 311 313 312 311 312 311
305 308 309 309 310 311 309 307 307 308 308 309 309 309 311 313 311 308 310 311 310 310 312 313 314 315 314 311 311 312 311 310 311 311 312 312 312 309 306 305 307 307 308 308 308 314 319 315 312 314 314 312 314 316 316 316 315 315 315 313 311 311 311 315 317 314 313 313 312 312 311 311 313 315 317 317 318 319 312 308 310 312 311 312 311 310 311 311
305 306 306 307 308 309 309 308 307 308 309 309 309 310 310 312 312 311 310 309 308 310 313 314 315 316 315 312 312 313 311 310 311 311 311 312 313 313 309 307 306 306 308 308 308 313 317 314 313 315 313 312 315 318 318 315 314 316 315 313 312 311 312 314 313 312 313 313 312 313 313 312 311 314 318 316 313 314 313 309 310 312 311 311 310 310 312 312
303 304 304 305 306 307 308 307 306 308 310 310 311 311 310 311 312 311 311 311 312 311 313 317 318 317 315 312 313 316 313 310 311 312 312 312 313 315 313 311 309 307 308 309 308 309 312 315 314 312 311 312 313 316 316 314 314 315 314 312 311 310 311 312 312 312 312 312 312 314 316 314 310 312 314 313 311 311 311 310 311 311 311 311 311 312 313 313
303 304 304 305 305 305 306 306 307 309 309 310 311 310 309 310 311 311 310 312 315 313 311 315 317 315 314 313 315 318 315 313 314 314 313 313 313 314 314 315 313 308 307 310 309 306 309 316 314 310 310 312 311 312 313 312 314 315 313 311 310 310 310 311 311 312 311 311 311 311 314 313 310 309 309 310 311 311 309 310 311 312 312 312 312 312 312 312
303 304 305 305 305 305 306 307 308 309 309 309 310 309 309 310 310 312 311 309 312 313 312 314 315 314 314 314 317 318 314 313 315 313 310 311 312 312 312 312 312 311 310 310 311 309 310 314 314 311 312 312 310 310 311 312 312 312 312 311 310 310 311 310 311 311 311 311 311 310 311 312 309 307 307 309 310 309 308 310 311 312 312 312 312 312 312 312
302 303 304 306 305 304 305 306 308 310 309 309 309 309 309 310 309 310 311 309 308 310 311 312 314 316 316 316 317 316 311 310 311 309 308 309 309 309 309 309 308 311 312 311 312 313 312 314 314 312 314 313 307 307 312 312 311 311 311 311 310 310 310 310 310 311 311 311 312 311 311 311 310 309 310 311 308 306 308 310 310 311 311 311 311 311 312 312
Wind_Speed
30 28 27 26 27 29 33 32 29 30 28 26 31 34 34 35 34 33 31 29 28 26 24 23 22 20 17 15 16 20 22 21 18 19 22 21 18 18 15 11 11 13 12 9 11 11 10 9 8 9 10 9 7 9 9 6 9 6 3 3 2 3 3 6 7 7 4 3 7 11 16 12 5 8 8 6 7 6 9 12 9 12 12 6 6 3 11 21
29 28 26 26 26 28 31 33 31 29 29 28 30 32 33 34 34 33 31 29 28 26 24 23 23 21 18 17 16 19 21 21 19 21 24 19 17 17 15 13 11 12 13 11 11 11 10 9 10 11 11 9 6 8 8 6 7 4 3 3 3 5 4 6 9 10 3 3 10 12 15 13 7 10 11 5 5 6 7 10 10 12 14 11 8 5 10 19
29 28 26 25 26 28 29 31 30 29 29 29 30 31 32 34 34 33 32 30 28 26 24 24 23 20 19 18 17 17 19 17 18 25 23 18 18 17 15 16 14 12 13 11 10 10 9 8 10 12 12 8 6 9 7 5 5 2 4 3 4 6 3 4 9 11 3 3 12 13 13 12 7 10 11 6 4 5 7 10 12 14 16 15 12 9 10 18
30 28 26 25 27 28 28 28 29 30 30 30 29 29 32 35 35 34 32 30 29 27 26 25 23 21 19 18 17 17 16 10 18 27 23 18 18 17 16 16 15 14 14 11 9 9 10 10 12 13 11 6 5 8 5 5 5 2 4 3 4 5 2 3 7 8 4 2 11 15 12 9 8 10 11 8 5 3 11 16 16 15 16 15 15 12 12 17
29 28 27 27 27 25 25 28 29 29 30 29 28 28 32 35 34 34 32 31 29 28 26 24 22 20 19 18 17 17 12 3 11 18 17 19 19 18 17 16 16 14 14 12 10 11 12 12 13 13 8 3 4 5 4 5 6 4 2 1 4 6 3 3 5 6 7 5 11 14 11 9 10 10 12 12 7 5 11 16 16 15 13 13 15 14 13 17
29 29 28 27 28 24 26 29 29 31 30 28 27 28 32 34 35 34 32 31 29 28 25 23 21 20 19 18 17 16 14 5 2 4 11 19 19 18 17 16 16 15 15 12 11 12 13 14 13 13 7 3 4 4 4 7 6 3 1 1 6 5 4 4 5 6 9 9 13 14 11 11 11 7 11 15 15 10 6 8 10 13 13 13 14 15 14 16
29 29 28 27 27 25 29 31 31 32 29 27 26 27 31 34 34 33 32 30 28 26 23 22 20 20 20 18 17 18 20 16 3 5 8 18 18 19 17 16 17 16 15 14 14 15 15 16 15 13 7 3 4 4 5 8 4 3 1 3 6 5 4 3 4 7 10 10 12 14 11 10 12 7 7 16 22 16 8 4 4 9 14 14 14 16 15 14
28 29 27 26 25 26 32 32 32 32 28 27 25 27 32 33 33 32 30 28 27 26 24 23 21 22 21 19 20 18 22 24 9 5 5 16 18 18 17 17 17 15 16 15 15 17 16 16 17 14 7 2 6 6 7 7 1 2 3 5 7 6 5 5 5 8 9 8 10 13 10 7 11 7 5 16 20 17 15 11 5 5 11 16 16 16 15 15
28 28 27 26 25 28 32 31 31 31 28 26 26 29 31 31 32 31 30 28 28 28 26 25 23 23 21 20 20 15 20 26 16 4 2 14 18 17 18 17 17 16 16 15 15 17 16 16 18 14 6 6 8 7 9 7 1 2 6 8 8 6 6 8 7 8 8 9 11 11 5 3 8 5 8 16 16 15 18 17 14 9 9 15 17 17 16 16
28 27 27 26 26 28 31 30 29 29 26 25 28 30 30 30 31 31 31 31 30 29 28 26 25 24 21 22 19 10 18 25 19 8 2 11 18 16 18 17 16 16 15 17 16 17 17 15 18 14 6 8 9 6 8 5 2 8 13 12 10 8 7 6 8 9 9 9 8 8 4 3 6 3 6 9 9 13 16 17 19 17 13 13 16 18 18 17
28 27 26 25 25 27 30 30 29 28 26 26 29 31 31 31 31 33 33 32 32 30 28 27 25 23 21 23 20 11 15 20 19 15 6 8 16 16 17 16 15 16 15 17 16 17 16 12 16 14 4 7 10 6 5 4 5 15 17 12 8 7 8 6 8 9 7 5 4 5 3 2 4 2 7 7 5 7 13 16 17 18 17 14 15 18 19 18
27 26 25 25 25 25 27 30 29 28 27 27 30 32 32 32 32 33 34 33 32 30 28 26 23 22 21 21 22 17 13 13 16 17 10 8 16 17 16 16 14 14 13 14 15 16 15 11 15 13 5 10 10 4 6 8 10 13 11 6 5 5 6 5 4 3 3 3 3 6 2 2 2 6 8 8 8 7 9 14 16 17 18 16 15 18 20 21
26 25 24 25 25 25 25 28 30 28 28 29 30 32 33 33 33 33 33 32 31 29 26 24 22 22 21 16 18 20 14 10 11 14 11 9 15 17 15 15 14 13 12 11 13 15 15 11 13 12 10 12 7 6 10 9 9 6 4 4 3 4 3 4 4 1 3 3 4 6 1 5 7 10 9 8 9 9 10 13 15 16 17 18 17 18 20 22
25 23 24 25 25 25 24 26 30 29 28 29 29 32 33 33 33 32 32 30 29 27 24 22 21 22 21 13 12 20 18 11 9 12 11 10 16 18 14 14 14 13 12 11 11 12 13 12 12 11 10 10 10 13 9 5 5 3 2 2 2 2 3 5 4 2 4 2 3 5 2 6 7 7 6 10 12 10 11 12 14 16 18 19 19 18 19 21
24 23 24 25 25 25 24 25 28 27 26 28 29 31 31 32 31 30 29 28 26 24 23 22 22 20 16 10 9 16 20 16 10 10 11 12 17 18 15 15 14 13 12 12 11 11 12 13 12 10 10 12 16 12 4 4 4 3 2 1 2 3 4 6 4 2 3 2 2 5 2 6 7 6 2 7 12 13 15 13 13 16 18 20 21 21 21 20
25 24 25 25 26 25 24 25 26 26 26 26 29 30 29 29 29 28 26 24 23 22 22 22 23 19 10 7 10 13 20 21 14 10 12 13 17 18 17 15 14 13 12 11 11 11 13 13 11 11 11 11 10 6 5 4 3 4 3 3 2 3 2 3 2 4 2 2 1 2 2 3 3 3 2 2 4 9 14 16 15 15 16 18 21 23 24 23
26 25 25 26 26 24 25 24 25 27 27 27 30 29 27 27 26 25 24 22 21 21 20 21 22 16 6 7 11 12 19 23 18 12 12 15 17 17 18 16 14 13 12 12 11 11 12 11 10 8 6 5 3 5 5 1 2 2 2 2 2 3 2 2 2 3 4 2 1 1 2 6 5 5 5 3 2 5 9 14 15 15 17 18 20 23 25 25
26 25 25 27 26 25 25 24 25 28 28 29 28 27 25 25 25 23 23 22 22 20 17 18 20 10 5 11 12 13 18 22 20 14 13 18 16 16 17 16 15 14 13 11 9 10 9 6 7 4 3 3 2 5 5 4 5 6 3 3 1 2 3 3 3 2 3 2 2 1 3 10 10 12 16 13 8 10 12 12 14 15 15 16 18 21 23 24
27 25 25 28 27 27 26 24 26 26 28 29 28 28 26 24 23 21 24 26 22 14 7 17 22 5 3 15 15 13 17 20 20 15 16 19 17 16 15 14 16 17 14 8 5 6 6 5 5 4 2 3 5 5 7 8 8 9 6 5 5 3 3 4 4 4 1 3 3 5 5 8 9 11 17 17 11 12 15 15 17 18 17 16 17 20 21 23
28 25 26 28 27 28 26 25 26 26 30 31 34 33 25 22 16 12 23 26 17 6 0 20 28 4 2 18 20 15 17 19 20 17 17 19 18 17 15 14 15 13 9 5 4 3 5 4 3 5 7 8 8 6 6 5 7 8 6 4 4 4 2 3 3 4 1 4 3 4 4 7 10 10 16 21 14 12 17 19 21 21 20 21 20 21 21 22
28 26 27 27 28 28 26 27 26 29 32 32 39 33 24 27 13 11 23 15 8 3 1 22 29 5 3 19 23 20 19 17 17 19 18 19 20 17 13 13 10 5 2 4 6 3 4 5 6 6 7 7 6 6 7 6 6 5 6 5 2 2 2 2 2 4 2 1 2 1 3 8 11 10 16 19 10 11 18 19 21 22 22 23 23 23 23 23
28 26 27 27 29 28 27 28 27 31 32 33 40 27 24 31 16 20 28 9 5 3 1 24 24 4 7 18 22 21 18 12 12 20 20 21 21 14 11 9 6 4 1 4 7 3 3 4 7 6 6 8 6 5 8 7 6 5 4 5 2 2 2 2 2 4 4 0 3 2 3 8 10 9 14 18 13 15 20 19 21 21 22 24 23 24 25 26
29 27 27 27 28 29 28 29 28 32 33 37 37 23 25 28 12 22 26 9 8 3 4 24 19 5 12 16 19 18 15 10 11 19 22 23 20 14 13 9 5 5 3 4 6 5 4 5 5 9 10 10 6 4 9 7 5 4 4 5 2 3 2 1 3 3 3 1 1 1 3 7 7 6 10 14 14 16 19 21 23 24 26 27 25 26 27 28
30 27 26 26 28 28 28 28 28 32 34 36 32 22 28 26 14 25 20 7 5 3 6 22 16 10 13 14 17 14 11 10 12 20 23 23 20 13 12 9 6 5 4 6 8 7 5 4 4 11 8 8 7 4 7 6 2 1 3 6 3 4 4 3 2 1 2 2 2 2 3 6 4 4 7 6 6 9 12 15 19 21 23 25 26 28 29 29
31 28 25 26 27 28 29 27 28 31 34 36 29 23 29 25 20 27 15 6 3 1 4 15 13 10 11 12 16 14 10 9 11 20 22 21 20 12 8 8 6 5 5 6 7 5 3 1 6 10 5 6 8 4 5 6 4 1 4 6 6 7 7 3 4 4 3 2 3 3 2 5 4 4 7 4 6 7 7 9 14 15 13 15 17 19 20 22
31 29 26 26 27 29 29 25 28 31 33 35 28 25 29 25 25 25 10 5 1 1 3 9 10 11 12 12 16 15 8 5 11 21 22 19 18 13 8 5 3 3 6 6 5 2 1 1 4 7 6 7 7 5 6 6 6 2 4 5 6 7 8 7 6 4 2 2 2 3 2 4 6 5 6 4 6 9 8 9 12 10 7 6 8 10 11 15
32 30 28 26 27 31 31 27 30 33 33 33 28 27 29 26 27 21 6 5 2 4 6 7 8 12 13 13 18 14 5 7 12 17 21 18 16 13 9 4 3 3 5 5 3 1 2 4 4 6 6 6 6 5 6 7 8 3 2 6 8 9 9 7 6 4 2 2 2 4 3 2 5 6 6 4 5 8 8 8 9 6 1 2 5 7 10 13
33 31 28 27 26 29 30 28 33 35 32 31 28 27 28 28 26 15 5 3 2 5 6 6 8 12 14 18 18 9 6 13 11 10 18 18 14 10 6 5 6 5 2 4 5 2 3 5 5 7 6 4 5 4 4 8 5 3 2 6 7 8 8 6 6 4 1 1 2 5 3 1 5 6 5 5 4 7 8 8 8 5 3 6 7 6 7 10
35 31 28 27 24 25 26 25 32 33 29 30 29 26 28 29 20 7 4 2 2 3 5 7 9 11 15 17 11 6 8 9 4 8 17 15 11 7 4 6 10 8 4 3 5 2 2 4 6 7 5 5 3 2 1 4 3 4 6 7 7 6 6 5 5 4 3 2 4 4 3 0 5 6 4 3 2 6 8 7 6 5 5 9 9 7 6 5
35 30 28 27 25 27 25 21 27 29 29 32 29 27 31 24 12 5 1 3 3 2 3 7 8 10 14 11 3 2 5 2 5 13 13 8 8 7 9 10 10 8 5 7 5 1 1 2 2 2 3 6 6 4 4 3 7 11 7 7 7 6 5 4 3 4 3 2 5 5 2 0 3 6 4 3 4 6 4 2 3 6 6 9 9 9 6 3
35 31 29 27 25 27 25 23 28 30 31 33 30 30 28 12 4 4 4 4 4 2 2 4 4 8 15 12 5 2 3 2 5 12 8 4 6 7 9 7 5 5 3 4 4 4 3 4 1 1 4 8 8 6 7 5 8 8 4 5 6 4 4 4 4 3 2 4 5 3 2 1 3 5 4 4 6 6 4 4 3 6 9 8 9 9 7 6
35 31 29 26 23 23 22 24 29 32 33 33 33 31 18 5 1 4 3 3 4 3 4 4 4 7 12 12 8 5 4 2 3 7 6 3 4 5 4 4 4 4 1 3 1 3 3 1 2 1 3 5 6 6 5 4 4 5 4 7 5 2 2 2 3 1 2 5 3 2 1 2 5 8 8 10 10 8 7 8 6 7 12 10 8 7 5 8
35 32 29 25 20 19 20 22 28 34 35 35 33 22 8 3 7 5 3 3 2 2 4 4 3 5 9 8 6 4 4 2 5 4 3 3 4 3 0 1 5 5 3 5 4 2 1 3 2 3 2 4 4 6 4 2 0 4 6 6 4 3 3 2 3 2 3 3 3 2 1 2 4 5 9 13 13 8 8 12 11 12 15 14 9 5 3 7
37 34 31 27 19 17 18 22 30 34 37 37 27 11 5 5 6 4 5 5 1 2 3 4 6 7 6 4 4 4 3 2 3 4 3 4 5 4 2 2 3 5 4 4 3 5 4 3 3 3 1 2 2 3 5 6 4 3 3 5 5 5 5 4 4 2 3 2 3 3 1 3 2 1 6 11 14 13 11 12 11 12 14 12 10 5 2 5
38 34 31 26 21 18 17 24 32 35 38 34 16 6 8 9 5 5 7 5 1 2 3 4 8 8 3 2 1 3 2 1 2 4 3 5 7 7 6 5 5 4 6 5 3 2 3 3 3 2 2 2 2 2 2 6 4 2 2 5 3 4 5 3 3 5 3 0 1 2 3 4 3 5 8 7 11 13 10 9 8 9 9 9 8 5 3 4
37 33 30 26 23 19 18 27 33 36 39 27 8 6 9 6 4 5 6 5 5 6 8 5 4 5 3 1 1 4 1 3 4 3 3 3 3 7 7 6 7 6 6 6 3 1 2 2 3 2 2 3 1 2 1 3 3 2 2 3 4 3 7 6 2 0 3 1 3 1 3 5 4 6 8 4 5 7 5 6 7 6 7 7 6 5 4 4
35 33 29 26 25 21 22 30 34 37 35 18 7 9 5 1 4 5 6 8 10 12 11 5 2 4 6 3 4 6 1 3 4 3 4 4 2 6 7 4 6 9 7 4 3 3 5 2 3 2 2 2 1 4 6 5 3 4 3 5 4 3 5 5 2 2 3 2 4 1 3 5 2 3 6 7 6 6 4 5 6 4 6 6 5 6 5 5
34 31 28 26 26 24 27 31 34 36 26 9 8 9 1 2 4 4 10 12 11 10 7 6 3 3 6 6 5 7 5 4 5 4 5 4 4 7 10 6 6 11 10 4 2 1 5 3 2 1 2 2 2 4 5 6 6 4 5 4 4 3 2 2 2 2 1 2 4 3 3 3 3 4 5 4 3 5 5 2 3 3 5 6 5 5 6 6
33 26 20 24 27 27 31 32 32 30 17 6 10 7 0 2 1 4 15 16 9 6 5 5 3 1 5 7 5 6 5 5 8 6 4 4 4 6 10 6 4 9 11 5 3 2 4 4 1 1 1 1 3 1 4 1 5 4 3 3 2 2 4 2 2 4 3 2 2 4 4 3 6 6 6 7 6 4 3 4 1 3 4 6 5 5 7 9
31 18 11 25 31 27 30 31 26 19 10 6 8 4 0 2 0 5 15 14 5 3 4 4 3 4 5 4 4 6 4 5 8 6 3 5 4 4 7 7 5 6 5 4 3 3 3 3 3 1 3 1 1 2 6 7 3 3 3 3 1 2 2 2 1 2 3 4 3 2 3 5 6 4 7 9 8 5 3 2 5 2 5 9 10 12 15 17
26 10 10 30 32 27 30 26 15 9 5 2 3 2 1 2 3 6 10 8 3 2 4 5 5 5 5 4 4 6 4 4 6 5 2 5 6 4 8 12 11 10 6 4 3 4 2 3 5 2 0 3 3 3 3 5 4 4 4 6 6 4 4 3 2 1 2 3 4 4 3 8 6 4 6 7 6 5 5 3 3 4 10 14 17 19 19 20
20 5 15 34 32 31 32 18 5 3 3 3 3 3 3 3 4 6 6 4 3 2 3 5 4 3 5 5 4 6 7 5 6 6 3 6 7 4 7 14 18 19 12 4 2 3 3 4 5 2 3 4 3 3 2 3 1 2 2 4 5 4 5 6 5 4 3 2 2 3 1 7 6 4 5 7 7 5 4 6 5 7 13 18 21 21 19 18
15 10 22 35 32 34 28 7 1 4 1 2 2 3 3 3 3 4 4 1 2 2 3 3 2 3 3 3 4 7 8 5 6 8 4 3 5 3 6 15 20 17 10 4 3 4 3 4 4 1 2 3 3 3 1 1 1 1 3 3 4 3 3 5 5 4 5 4 2 3 2 7 6 3 5 9 10 8 6 7 8 10 14 19 21 20 17 12
17 22 27 32 32 33 20 5 7 9 2 1 3 3 2 2 3 5 4 2 1 2 4 2 2 3 3 4 6 7 9 5 5 7 3 2 4 2 9 21 22 13 8 7 9 9 5 3 5 4 2 3 3 2 2 3 1 3 3 2 4 4 6 5 2 4 2 5 6 5 4 8 6 4 3 5 6 7 6 8 11 13 15 18 20 17 11 5
15 19 22 28 35 33 14 2 7 7 4 4 4 3 3 3 2 3 3 2 0 2 4 2 2 4 4 4 5 4 8 5 3 5 3 2 2 1 8 22 23 13 7 7 11 13 7 3 5 6 5 5 4 5 4 3 2 2 1 4 6 7 9 6 2 4 2 5 7 7 6 5 5 5 4 4 3 4 5 8 12 14 16 17 15 9 5 4
5 5 10 16 26 29 13 1 6 7 5 7 5 4 4 3 1 2 4 3 1 1 4 2 2 5 4 5 6 5 8 3 3 3 4 3 2 2 3 15 18 11 4 5 14 14 4 1 6 8 9 11 10 9 5 5 6 5 5 8 9 8 9 6 5 4 5 3 4 8 8 3 4 5 5 6 5 5 5 8 13 17 19 16 10 8 9 8
1 1 4 5 10 15 10 4 6 7 5 8 6 4 4 5 2 2 3 1 3 3 4 3 2 4 5 8 6 5 8 4 3 3 4 4 2 2 1 6 11 8 3 8 17 12 4 2 7 8 11 12 9 8 5 7 9 10 9 10 10 10 9 8 7 9 6 7 6 13 9 8 9 8 8 8 6 5 8 12 16 19 19 14 11 12 10 11
1 2 3 3 4 6 8 9 8 7 7 8 5 4 6 6 5 4 1 2 1 3 2 2 1 3 8 11 7 5 6 4 2 3 3 3 2 2 3 1 4 5 2 6 12 7 3 6 8 7 12 10 4 6 7 8 8 8 10 13 12 13 13 13 15 13 9 8 15 12 11 14 11 8 9 10 10 11 13 13 13 14 16 15 14 14 14 18
3 3 4 5 3 3 9 13 11 8 8 7 3 3 8 10 7 4 2 3 1 2 2 4 4 4 7 8 6 6 8 6 5 5 3 4 4 3 2 1 1 3 2 4 5 3 3 5 5 7 11 10 2 4 5 7 6 4 9 13 13 15 17 17 18 16 12 15 18 7 7 12 9 9 12 13 16 17 13 9 9 13 17 17 16 18 20 21
4 3 4 7 7 5 11 15 12 7 6 5 3 3 6 10 9 4 1 4 4 3 1 4 5 5 4 4 6 4 7 8 7 7 7 6 4 3 4 4 3 2 2 3 2 2 3 3 1 6 6 7 3 4 2 4 5 4 6 8 11 14 15 16 18 15 11 15 16 4 4 12 7 11 13 14 16 16 12 13 17 19 22 21 21 24 24 24
8 7 9 8 4 3 7 8 8 7 4 5 6 4 6 9 10 6 1 1 4 5 5 7 8 5 3 4 5 2 6 7 6 10 14 11 8 7 4 5 8 7 4 4 3 3 4 2 2 5 4 5 2 5 5 6 5 3 2 7 13 14 14 15 15 10 10 14 13 5 9 12 6 11 13 15 18 17 16 21 25 27 30 27 25 27 28 29
11 10 12 10 4 2 4 4 5 7 5 5 5 3 4 6 7 7 4 1 2 5 9 12 10 5 3 3 4 5 8 10 8 10 14 10 8 8 5 6 12 10 7 6 3 2 5 5 2 4 6 4 4 4 7 7 4 3 7 13 18 17 15 12 8 6 9 12 9 9 13 9 6 10 11 10 12 16 21 28 30 31 32 29 28 30 30 28
Wind_Direction
210 213 213 215 209 207 207 205 210 206 200 209 205 200 200 197 197 196 197 199 199 199 195 194 194 195 200 202 206 210 222 239 243 235 237 239 228 226 232 232 234 232 234 224 199 202 205 202 193 181 178 177 184 185 173 162 158 148 102 91 140 177 200 189 181 190 167 170 189 181 177 167 168 182 174 169 184 196 194 198 203 201 201 183 173 173 183 184
207 212 211 213 209 206 207 209 213 204 200 208 200 196 196 193 194 193 193 195 195 193 189 190 192 194 199 205 213 215 222 234 240 238 239 239 226 223 228 224 228 227 223 216 201 205 210 203 187 174 173 176 179 176 173 163 150 122 94 115 193 200 201 192 179 184 164 132 169 174 179 177 177 175 172 172 183 182 188 206 210 209 210 206 201 198 190 188
204 209 208 210 206 205 208 209 207 197 198 202 195 192 192 191 191 190 190 191 190 188 186 190 193 196 201 208 214 216 222 231 239 240 235 230 224 218 219 221 224 221 214 210 203 206 208 195 181 173 172 174 170 173 170 161 161 111 109 125 231 210 194 193 185 187 187 123 160 166 176 181 183 175 178 184 170 178 204 209 208 215 214 210 211 211 198 192
202 205 206 205 204 208 210 202 194 192 197 198 191 189 189 189 189 188 188 187 186 185 187 191 193 197 204 208 209 210 215 229 244 244 237 225 222 216 216 219 219 217 208 203 203 203 196 182 175 173 171 167 160 173 170 163 178 150 128 161 216 181 134 178 190 196 211 165 165 163 163 179 187 181 186 176 148 220 232 220 217 222 214 206 208 211 205 196
202 202 202 203 206 210 201 190 190 193 195 194 189 187 187 187 187 186 186 184 184 185 188 191 193 198 203 203 202 201 196 214 251 246 237 220 216 216 216 215 216 212 202 202 206 194 183 175 169 167 166 157 147 162 184 169 155 133 132 171 152 141 115 167 176 191 203 178 165 159 157 180 178 187 196 183 178 224 235 232 232 232 221 211 210 211 208 201
202 200 201 204 208 207 189 184 193 194 192 192 187 186 186 185 185 185 184 183 183 186 188 191 194 198 199 196 197 193 185 193 301 260 221 211 210 212 211 212 211 205 200 206 205 188 178 171 164 164 156 124 156 159 175 171 157 143 258 121 129 121 103 153 178 192 192 174 167 167 168 174 167 191 206 202 214 220 238 249 240 235 225 219 217 216 213 207
201 200 201 204 207 201 188 189 196 191 188 189 186 186 186 183 183 183 183 183 184 187 190 194 196 198 194 190 192 193 201 217 289 5 212 200 203 205 204 208 205 201 202 204 202 188 177 172 166 165 146 98 172 172 152 163 162 127 148 161 133 108 87 137 186 181 180 179 177 173 168 170 175 189 210 219 226 224 233 244 234 232 221 220 221 221 223 219
198 200 200 204 207 196 191 197 194 186 187 186 185 188 186 183 182 183 184 186 189 192 197 199 198 196 190 188 191 194 211 220 233 334 223 192 195 198 199 204 199 199 202 204 204 190 178 174 169 165 151 136 178 167 149 148 117 91 139 162 133 107 92 100 139 157 168 176 171 167 161 172 187 192 231 234 231 226 230 231 230 230 218 219 221 223 225 222
195 198 199 205 206 195 196 200 190 184 186 184 187 189 186 184 184 185 189 192 194 197 201 201 197 192 186 191 192 198 217 217 217 283 240 187 187 193 199 200 196 197 199 201 202 193 185 177 174 172 170 175 165 155 155 153 241 167 138 142 131 109 103 106 117 131 147 154 158 160 136 145 181 201 255 248 243 234 233 235 235 235 225 221 222 226 226 223
193 197 201 205 206 200 200 200 188 183 183 185 189 189 186 185 185 188 193 196 197 200 201 197 192 187 186 191 188 201 222 215 216 234 261 188 186 191 198 195 195 196 197 197 196 194 190 184 182 176 165 167 153 143 160 164 203 149 125 113 106 103 106 113 118 117 126 136 155 162 118 112 155 177 255 249 253 241 234 236 236 235 236 230 225 226 226 227
191 196 200 204 205 201 201 201 191 182 182 187 189 188 187 187 187 190 195 198 199 198 195 190 187 184 188 194 190 199 217 214 219 226 242 198 188 189 192 193 196 196 198 199 196 193 191 191 184 174 161 168 151 125 146 143 138 137 124 97 65 84 93 87 108 116 117 120 153 153 120 78 117 186 243 236 256 254 236 233 234 234 234 234 230 227 226 228
190 193 197 200 198 196 198 199 189 181 184 187 187 188 188 190 190 192 195 196 195 191 187 184 182 182 187 196 201 206 213 215 220 223 230 205 188 186 188 192 194 193 198 204 199 192 190 189 184 183 167 156 149 111 136 133 128 131 122 98 12 36 65 44 63 98 108 109 136 128 114 297 198 223 235 231 240 254 239 230 231 231 232 232 231 228 226 227
188 190 193 192 189 190 193 190 182 181 186 184 183 185 187 189 189 191 191 189 186 182 180 180 176 181 186 192 206 210 212 215 215 218 221 204 189 186 187 189 188 187 188 198 198 190 189 188 190 189 158 148 141 121 134 121 119 126 93 102 52 29 12 358 18 45 106 109 144 135 216 267 252 243 230 226 231 235 239 233 229 229 229 230 231 230 228 227
184 186 188 186 186 187 186 182 180 182 183 179 179 182 184 184 184 185 184 181 180 177 175 174 173 181 186 185 205 211 211 210 207 209 211 199 187 184 184 183 179 180 176 178 183 181 181 183 186 176 148 142 129 120 115 67 82 107 64 64 77 146 257 321 7 55 122 137 157 135 223 262 268 264 230 228 230 230 237 235 233 231 228 229 230 232 230 227
179 180 181 183 184 184 182 179 181 180 175 175 177 177 179 179 179 179 177 176 175 174 171 170 173 176 181 186 205 211 211 213 210 205 204 193 186 183 179 177 172 170 169 168 169 164 163 171 173 147 120 130 129 117 74 25 32 38 105 306 346 160 242 315 6 47 133 171 132 121 218 270 270 272 251 234 235 235 238 238 237 234 231 231 232 233 233 231
176 177 180 181 181 182 180 177 180 176 168 172 175 173 174 175 174 174 172 171 170 169 168 170 174 171 167 190 202 207 208 211 211 203 200 187 183 182 174 171 169 166 165 166 168 160 153 156 147 122 116 128 127 106 69 51 3 360 103 180 253 164 226 310 5 9 58 144 73 109 218 272 275 251 156 150 231 235 236 241 240 237 239 239 239 238 238 236
175 177 181 180 178 180 177 176 178 172 167 171 171 167 168 169 169 168 166 165 164 164 167 171 171 168 173 196 196 201 203 205 205 202 195 182 180 180 175 169 165 166 165 163 166 158 150 144 132 123 109 110 109 102 101 68 258 278 55 115 212 182 178 269 269 335 28 116 222 20 242 244 257 268 244 216 277 265 244 249 250 248 251 250 246 242 240 240
174 177 182 178 176 176 175 176 174 172 172 168 163 161 161 162 162 162 161 159 155 153 163 173 167 163 218 204 193 196 198 199 198 197 188 179 176 176 177 171 165 165 157 151 159 154 142 122 118 125 53 69 125 121 143 203 187 182 171 132 172 203 199 240 234 273 26 89 200 195 253 259 271 284 275 264 269 272 266 266 264 260 258 252 246 242 240 241
171 176 181 177 175 174 174 175 171 171 168 159 154 154 152 151 151 154 159 155 150 145 162 179 172 156 223 192 187 186 189 189 188 188 182 175 169 171 175 172 168 163 149 139 158 153 130 97 97 129 130 153 189 169 175 196 169 166 167 143 154 168 223 244 245 271 56 128 214 220 232 268 278 283 280 275 273 271 272 272 269 266 261 253 245 241 239 240
170 175 179 175 173 173 173 172 168 164 161 157 155 151 145 144 137 148 162 158 157 150 224 180 177 171 87 171 176 173 171 175 180 180 176 174 167 164 163 161 161 154 145 144 159 153 119 126 159 179 184 186 189 166 148 154 135 137 127 113 149 153 222 251 262 304 56 154 234 238 245 273 270 271 276 277 280 273 270 269 268 266 260 254 247 244 242 241
169 174 177 175 173 172 172 170 167 162 160 161 161 157 157 159 150 164 164 159 169 160 340 178 178 194 129 163 169 167 160 161 175 175 172 173 167 161 158 155 149 132 150 131 117 113 113 156 208 209 190 170 156 131 111 98 86 99 128 133 151 173 212 250 261 320 14 170 249 341 304 271 262 265 271 273 272 259 261 262 263 264 259 255 252 250 248 246
171 174 174 174 172 171 171 170 168 164 161 165 165 163 168 166 163 170 162 139 162 145 143 176 178 199 152 160 164 163 157 145 164 172 169 169 168 168 163 150 136 133 157 113 104 104 142 207 230 198 147 109 86 90 97 89 86 84 110 129 161 220 220 292 299 334 15 177 261 351 319 272 264 260 263 263 253 252 259 257 259 262 260 258 256 255 253 251
172 172 171 174 172 171 173 172 170 167 166 169 167 163 168 166 161 166 157 120 143 114 142 172 179 179 150 157 164 161 157 143 158 171 169 170 170 169 160 141 118 136 153 162 145 147 176 249 232 162 139 115 83 76 96 85 82 90 108 128 184 227 168 218 246 318 11 73 253 284 290 281 281 279 267 262 256 258 262 258 257 258 259 260 259 258 257 255
173 169 170 173 171 173 174 172 172 171 172 171 167 162 166 166 157 160 150 85 131 95 152 173 179 174 156 157 168 169 160 150 160 169 170 171 166 158 158 143 119 137 166 170 150 151 187 273 162 141 137 128 116 108 119 111 85 32 155 147 172 195 178 197 184 70 3 20 41 44 313 295 307 308 279 281 292 271 263 262 259 255 258 262 262 261 261 262
172 169 169 171 173 174 173 173 174 174 174 172 169 164 165 165 156 157 144 61 124 70 144 175 180 180 171 163 170 170 155 146 157 167 172 174 164 149 147 143 136 165 177 143 125 146 208 262 140 135 121 127 127 150 172 146 127 269 218 177 174 172 161 152 127 88 48 350 2 30 316 286 317 306 265 305 343 301 281 275 264 259 261 264 267 268 266 265
174 171 170 172 177 174 171 175 176 174 175 174 169 163 164 162 155 157 142 57 173 221 143 173 179 182 184 171 164 156 143 150 161 167 170 174 170 155 141 135 102 161 169 139 122 153 197 88 120 131 133 137 137 176 198 152 127 200 229 169 149 137 131 138 140 109 114 205 340 47 164 255 317 306 269 310 323 299 299 282 270 270 262 263 279 282 270 263
177 174 173 177 181 178 175 176 176 174 176 175 168 162 163 160 157 160 128 43 248 185 147 165 173 178 182 168 161 152 146 163 155 167 171 171 176 163 156 164 82 133 168 134 140 204 113 96 78 102 117 129 145 191 210 150 133 201 224 133 130 127 135 145 123 107 174 210 331 17 107 218 298 278 275 321 315 303 307 284 292 309 282 313 320 299 280 269
177 176 176 180 186 185 181 179 178 175 174 172 165 162 162 158 161 161 110 80 206 150 147 172 166 170 169 163 164 153 138 150 142 173 176 168 174 161 157 185 140 134 157 135 177 237 98 146 164 136 123 150 177 229 206 140 118 243 202 125 131 125 125 123 98 93 34 32 297 328 34 196 266 273 300 349 335 303 292 275 297 329 1 355 344 320 299 279
176 176 178 181 186 187 185 185 181 174 169 167 162 160 160 159 160 139 80 155 164 110 143 158 156 166 161 156 162 136 131 146 125 164 168 163 172 160 130 160 135 112 58 79 158 195 71 175 183 151 147 181 188 321 234 139 107 170 148 101 87 79 79 82 87 96 48 43 238 279 7 234 265 284 308 5 308 263 269 275 280 291 341 1 358 351 335 299
175 175 179 183 185 184 185 184 178 172 166 164 163 160 159 158 152 119 126 199 150 94 133 149 161 169 156 143 119 101 123 117 110 136 147 147 154 134 112 129 123 107 46 36 89 195 350 112 122 119 145 158 137 59 33 81 131 140 127 83 69 41 37 49 52 80 68 308 249 261 322 337 272 282 253 209 219 219 232 276 262 285 336 13 11 5 11 20
175 176 181 186 188 186 182 174 171 171 166 164 161 159 156 147 111 136 183 183 128 96 106 147 170 160 159 156 148 145 92 49 128 137 140 127 125 118 113 122 103 86 55 44 53 335 15 79 41 70 127 128 111 64 40 63 114 116 97 98 88 11 13 26 0 44 104 250 259 273 312 168 223 262 248 241 254 228 197 178 200 297 327 0 11 7 30 65
177 178 181 187 190 186 180 173 170 167 164 163 160 158 150 116 160 183 184 154 147 183 172 176 201 175 171 163 147 151 110 86 162 145 142 136 135 146 141 166 153 105 146 174 106 360 46 71 325 76 155 160 118 83 45 8 34 78 104 114 99 19 21 5 308 334 210 239 275 297 287 213 230 251 257 262 263 238 221 224 230 286 301 317 350 2 45 87
179 179 179 184 186 181 177 174 170 165 163 162 160 155 123 117 194 186 161 175 193 185 149 134 141 151 157 149 147 158 103 117 187 158 130 119 139 174 301 166 145 120 173 177 126 89 41 309 311 110 214 233 154 123 138 247 189 127 139 133 129 118 102 230 253 292 253 253 308 293 253 259 263 265 250 249 256 250 244 255 259 272 279 288 307 331 59 99
181 181 179 178 174 173 176 173 168 166 164 161 158 147 112 173 194 143 155 204 281 58 88 105 115 120 134 141 177 178 86 54 176 136 117 125 140 187 225 222 156 100 109 148 151 159 170 255 229 165 209 220 176 168 156 144 134 166 161 129 146 157 150 199 207 194 231 261 312 296 257 206 197 258 234 240 265 274 269 267 266 264 265 271 276 270 108 107
179 180 177 169 166 173 174 169 169 168 165 161 156 158 173 191 195 146 168 195 181 68 57 90 118 125 132 40 329 216 110 116 171 111 131 161 167 186 188 198 200 137 123 157 197 162 157 229 257 280 287 131 155 230 135 107 116 216 126 109 157 182 138 135 174 175 170 24 285 252 238 218 208 280 269 255 273 278 273 266 259 251 242 240 245 228 148 130
173 173 173 169 170 179 176 171 171 170 167 161 154 190 193 196 178 165 164 151 146 132 106 87 92 125 157 52 293 247 13 114 165 143 165 190 194 192 188 194 194 180 159 156 167 148 145 248 313 347 5 54 122 215 96 100 157 159 117 160 204 161 114 114 173 104 76 185 256 225 259 292 325 295 295 322 298 283 271 248 237 223 211 212 218 193 164 173
166 168 172 170 172 180 181 175 172 171 170 167 181 194 188 141 167 159 136 130 141 138 128 134 138 143 164 162 192 206 168 113 160 173 176 186 222 194 194 218 191 188 194 154 162 202 154 127 337 28 83 18 47 100 63 42 86 125 173 192 175 113 96 113 139 22 45 237 273 298 252 294 341 284 317 351 324 298 280 244 231 199 180 177 161 155 170 192
162 165 170 172 175 181 180 177 175 173 169 173 204 200 146 119 180 148 134 133 140 142 139 158 163 145 168 173 183 185 174 159 169 180 169 184 243 196 179 200 192 192 203 168 131 197 126 109 330 2 136 293 344 91 85 27 38 111 172 156 120 133 151 114 135 145 132 232 280 307 289 264 205 223 290 312 289 300 311 284 225 210 186 163 136 147 180 189
160 160 168 177 177 177 178 178 176 170 166 186 201 207 207 131 218 168 149 141 135 141 151 168 158 107 170 171 161 167 180 174 168 178 177 184 238 204 178 182 182 192 197 170 154 170 112 122 221 303 263 287 357 85 170 162 26 51 108 106 73 123 155 158 143 160 177 191 254 309 330 263 223 213 229 231 231 254 351 33 335 266 208 176 153 140 148 139
160 151 166 178 172 171 174 173 169 168 178 207 188 192 259 126 157 185 158 145 130 137 159 176 154 136 162 162 148 163 173 166 170 188 208 184 193 218 198 183 151 167 170 109 126 158 102 124 164 311 325 207 183 220 190 176 143 99 123 154 166 65 114 159 84 111 141 153 182 251 299 269 248 205 202 224 234 210 136 17 319 348 124 151 146 132 126 117
155 133 162 171 166 164 164 162 165 176 188 201 144 138 208 142 134 172 166 149 106 98 135 143 139 143 150 150 164 170 149 143 176 193 221 196 194 219 209 189 161 149 136 83 128 163 130 131 146 139 223 192 227 268 211 181 160 145 167 180 172 140 120 148 242 261 116 135 165 166 247 268 257 209 204 222 229 202 180 226 264 96 115 131 132 129 122 112
152 118 168 169 165 163 160 155 172 180 146 158 147 126 148 137 132 161 174 152 100 85 103 109 118 134 146 150 154 160 154 152 181 190 205 210 208 218 206 187 166 157 153 136 149 156 117 104 113 140 205 209 256 293 225 219 213 119 186 189 164 159 138 149 206 221 120 106 132 117 246 271 259 217 216 231 238 238 221 214 188 132 128 131 131 130 121 111
150 117 158 170 169 167 163 151 182 174 174 196 136 76 102 119 123 150 176 168 107 110 99 100 133 135 148 159 140 159 170 165 185 196 199 201 210 230 183 170 162 157 151 134 152 151 122 104 104 68 310 312 316 333 16 334 10 160 229 193 157 178 146 144 180 167 133 158 144 86 291 269 269 258 239 242 252 266 253 206 176 149 138 136 134 130 120 110
135 124 151 170 172 171 170 180 187 182 193 146 93 74 95 74 106 150 178 209 162 145 127 127 167 143 148 154 137 165 182 176 198 204 188 172 195 197 171 167 164 165 171 177 177 173 174 156 122 110 34 4 351 335 333 318 249 206 232 166 138 117 95 105 128 89 102 196 158 137 237 255 277 313 287 259 272 278 248 188 170 163 152 146 141 132 120 111
127 128 150 167 173 178 186 220 177 167 145 130 119 134 131 54 52 131 144 142 156 158 137 133 151 118 124 138 109 150 184 172 174 186 174 198 202 92 173 176 174 176 188 190 169 163 170 180 146 146 161 172 190 204 215 233 197 203 213 159 165 149 136 149 127 97 213 219 159 171 228 256 294 320 315 292 294 274 224 181 176 179 170 160 154 153 170 190
127 133 148 158 173 186 205 277 139 144 153 150 143 162 147 107 59 60 90 122 193 97 93 102 148 104 103 143 124 157 193 166 71 155 170 182 207 348 183 185 186 185 185 172 160 152 134 218 181 181 188 191 196 199 182 133 146 191 194 174 177 171 154 136 111 160 199 157 165 222 229 237 264 267 267 256 238 232 220 194 191 191 183 178 190 223 232 232
66 148 146 140 165 182 205 219 150 142 167 168 164 174 150 133 134 66 52 85 187 157 66 48 150 137 148 160 144 168 192 165 90 148 150 155 199 337 48 182 192 191 164 161 164 148 87 210 201 200 209 209 195 185 166 144 173 191 176 168 175 170 157 150 180 205 153 112 235 240 215 218 233 220 226 236 226 233 237 217 206 200 195 203 236 257 269 292
111 112 119 126 150 181 199 193 165 139 157 169 164 158 153 150 153 151 96 42 139 187 87 58 227 194 167 164 149 151 165 152 165 175 133 142 161 61 42 63 193 194 157 157 168 147 115 203 206 196 215 226 173 155 171 162 175 181 168 174 175 167 172 182 205 209 148 168 239 229 187 215 221 188 211 225 211 216 224 218 211 213 221 234 252 275 301 309
127 105 86 95 98 151 155 151 142 133 150 158 148 167 171 170 170 168 131 90 106 252 138 146 200 194 166 162 143 149 168 167 187 204 170 154 153 117 95 80 206 205 148 137 172 164 150 204 200 176 214 237 174 144 183 159 151 164 177 180 170 173 187 194 209 213 183 209 237 205 171 230 215 178 211 218 215 222 228 236 239 241 249 257 269 287 298 292
150 148 121 94 74 94 126 133 135 139 154 160 172 198 182 175 176 173 122 132 158 205 185 154 159 138 138 149 126 154 193 171 167 192 174 152 167 181 174 179 176 156 138 144 163 180 185 223 152 139 207 247 188 129 111 127 145 161 174 179 174 182 197 203 216 218 200 227 244 221 258 267 221 187 213 221 226 239 250 255 253 252 258 267 275 279 279 277
151 153 143 121 83 95 126 130 133 137 162 186 187 187 185 188 180 154 117 137 145 162 166 149 140 116 81 105 116 173 204 164 158 188 179 166 174 182 188 185 163 146 159 177 154 149 181 207 60 110 180 249 228 146 123 81 76 87 154 188 187 191 201 208 216 209 192 220 236 229 258 266 203 179 208 221 229 239 247 249 251 252 254 260 266 267 269 275
131 144 149 138 110 126 134 115 135 156 177 185 176 160 168 185 167 143 157 212 109 147 162 153 143 121 102 145 165 167 154 134 120 155 167 162 156 153 142 154 158 156 163 163 146 152 160 151 122 143 179 254 316 135 130 88 69 257 235 202 193 198 205 209 225 225 204 207 209 215 236 239 158 171 200 210 218 229 236 239 243 247 251 257 262 264 270 276